Ellsworth AFB, SD

4:11 AM MDT on August 18, 2017 (GMT -0600)
Ellsworth Air Force Base

Weather History for KRCA - June, 2013

Change the Weather History Date:

Wednesday, June 19, 2013

  Actual Average Record
Temperature  
Mean Temperature 74 °F -  
Max Temperature 87 °F 74 °F 88 °F (2016)
Min Temperature 61 °F 51 °F 44 °F (1998)
Cooling Degree Days 8    
Growing Degree Days 24 (Base 50)    
Moisture  
Dew Point 58 °F    
Average Humidity 57    
Maximum Humidity 73    
Minimum Humidity 39    
Precipitation  
Precipitation 0.00 in - - ()
Sea Level Pressure  
Sea Level Pressure 29.69 in    
Wind  
Wind Speed 15 mph (South)    
Max Wind Speed 24 mph    
Max Gust Speed 36 mph    
Visibility 10 miles    
Events Rain , Thunderstorm    
Averages and records for this station are not official NWS values.
T = Trace of Precipitation, MM = Missing Value Source: NWS Daily Summary

Daily Weather History Graph

Daily Weather History Graph

Search for Another Location

Airport or City:

Trip Planner

Search our weather history database for the weather conditions in past years. The results will help you decide how hot, cold, wet, or windy it might be!

Date:

Astronomy

Jun. 19, 2013 Rise Set
Actual Time 5:08 AM MDT 8:39 PM MDT
Civil Twilight 4:32 AM MDT 9:15 PM MDT
Nautical Twilight 3:44 AM MDT 10:03 PM MDT
Astronomical Twilight 2:42 AM MDT 11:05 PM MDT
Moon 4:28 PM MDT (6/19) 2:02 AM MDT (6/19)
Length of Visible Light 16h 43m
Length of Day
15h 30m
Waxing Gibbous, 81% of the Moon is Illuminated
Jun 19
Waxing Gibbous
Jun 23
Full
Jun 29
Last Quarter
Jul 8
New
Jul 15
First Quarter

Hourly Weather History & Observations

Time (MDT) Temp. Heat Index Dew Point Humidity Pressure Visibility Wind Dir Wind Speed Gust Speed Precip Events Conditions
12:58 AM 65.1 °F - 55.6 °F 71% 29.82 in 10.0 mi SSE 13.8 mph 18.4 mph N/A   Clear
1:58 AM 62.2 °F - 52.5 °F 70% 29.81 in 10.0 mi South 8.1 mph - N/A   Clear
2:58 AM 62.8 °F - 50.9 °F 65% 29.81 in 10.0 mi South 9.2 mph - N/A   Clear
3:58 AM 63.3 °F - 49.5 °F 61% 29.78 in 10.0 mi South 8.1 mph - N/A   Clear
4:58 AM 61.2 °F - 49.8 °F 66% 29.81 in 10.0 mi South 8.1 mph - N/A   Partly Cloudy
5:58 AM 62.6 °F - 49.3 °F 62% 29.80 in 10.0 mi SE 6.9 mph - N/A   Clear
6:58 AM 65.7 °F - 52.7 °F 63% 29.78 in 10.0 mi SSE 11.5 mph - N/A   Clear
7:58 AM 69.6 °F - 54.0 °F 57% 29.75 in 10.0 mi South 13.8 mph - N/A   Clear
8:58 AM 72.3 °F - 55.6 °F 56% 29.77 in 10.0 mi South 18.4 mph 28.8 mph N/A   Clear
9:58 AM 74.3 °F - 55.4 °F 52% 29.75 in 10.0 mi SSE 20.7 mph 25.3 mph N/A   Clear
10:58 AM 76.5 °F - 57.2 °F 51% 29.73 in 10.0 mi SSE 17.3 mph 25.3 mph N/A   Clear
11:58 AM 79.5 °F - 57.4 °F 47% 29.71 in 10.0 mi South 19.6 mph 28.8 mph N/A   Clear
12:58 PM 82.6 °F 82.3 °F 57.7 °F 43% 29.68 in 10.0 mi SE 21.9 mph 32.2 mph N/A   Partly Cloudy
1:58 PM 85.1 °F 84.3 °F 57.7 °F 39% 29.66 in 10.0 mi SSE 23.0 mph 29.9 mph N/A   Partly Cloudy
2:58 PM 86.9 °F 86.3 °F 58.8 °F 39% 29.65 in 10.0 mi South 24.2 mph 32.2 mph N/A   Partly Cloudy
3:58 PM 84.4 °F 84.2 °F 59.9 °F 43% 29.63 in 10.0 mi South 20.7 mph 32.2 mph N/A   Scattered Clouds
4:58 PM 85.6 °F 85.4 °F 60.4 °F 42% 29.61 in 10.0 mi South 18.4 mph 28.8 mph N/A   Clear
5:58 PM 85.3 °F 85.4 °F 61.3 °F 44% 29.60 in 10.0 mi South 20.7 mph 28.8 mph N/A   Clear
6:58 PM 81.5 °F 82.5 °F 62.4 °F 52% 29.60 in 10.0 mi SSE 12.7 mph - N/A   Partly Cloudy
7:18 PM 80.6 °F 81.8 °F 62.6 °F 54% 29.67 in 10.0 mi SSE 12.7 mph - N/A Rain Light Rain
7:21 PM 80.6 °F 81.8 °F 62.6 °F 54% 29.66 in 10.0 mi SSE 13.8 mph - N/A   Clear
7:58 PM 80.2 °F 81.5 °F 63.0 °F 55% 29.60 in 10.0 mi SSE 13.8 mph - 0.00 in   Clear
8:58 PM 78.1 °F - 63.0 °F 60% 29.60 in 10.0 mi SSE 16.1 mph 23.0 mph N/A   Clear
9:58 PM 76.3 °F - 62.6 °F 62% 29.60 in 10.0 mi South 16.1 mph - N/A   Clear
10:58 PM 76.5 °F - 62.2 °F 61% 29.59 in 10.0 mi South 19.6 mph 25.3 mph N/A   Scattered Clouds
11:21 PM 75.2 °F - 64.4 °F 69% 29.66 in 10.0 mi SSE 23.0 mph 31.1 mph N/A Rain Light Rain
11:28 PM 73.4 °F - 64.4 °F 73% 29.65 in 10.0 mi South 24.2 mph 31.1 mph N/A Rain , Thunderstorm Light Thunderstorms and Rain
11:33 PM 73.4 °F - 62.6 °F 69% 29.65 in 10.0 mi SSW 20.7 mph 29.9 mph N/A Thunderstorm Thunderstorm
11:35 PM 73.4 °F - 62.6 °F 69% 29.66 in 10.0 mi SSW 21.9 mph 29.9 mph N/A Thunderstorm Thunderstorm
11:43 PM 73.4 °F - 64.4 °F 73% 29.67 in 10.0 mi SSW 21.9 mph 29.9 mph N/A   Mostly Cloudy
11:58 PM 76.3 °F - 61.0 °F 59% 29.55 in 10.0 mi SSW 15.0 mph 35.7 mph 0.00 in   Overcast